Time,TemperatureF,DewpointF,PressureIn,WindDirection,WindDirectionDegrees,WindSpeedMPH,WindSpeedGustMPH,Humidity,HourlyPrecipIn,Conditions,Clouds,dailyrainin,SoftwareType,DateUTC
2013-02-04 00:00:00,20.8,-9.4,29.42,WNW,291,0.0,0.0,25,0.00,,---,0.00,VWS V13.01,2013-02-04 05:00:00,
2013-02-04 00:03:00,21.0,-9.3,29.42,WNW,291,0.0,0.0,25,0.00,,---,0.00,VWS V13.01,2013-02-04 05:03:00,
2013-02-04 00:08:00,21.2,-9.1,29.42,WNW,291,0.0,0.0,25,0.00,,---,0.00,VWS V13.01,2013-02-04 05:08:00,
2013-02-04 00:14:00,21.2,-9.1,29.42,WNW,291,0.0,0.0,25,0.00,,---,0.00,VWS V13.01,2013-02-04 05:14:00,
2013-02-04 00:19:00,21.4,-9.0,29.42,WNW,291,0.0,0.0,25,0.00,,---,0.00,VWS V13.01,2013-02-04 05:19:00,
2013-02-04 00:24:00,21.7,-8.6,29.42,WNW,291,0.0,0.0,25,0.00,,---,0.00,VWS V13.01,2013-02-04 05:24:00,
2013-02-04 00:29:00,21.9,-8.5,29.42,WNW,291,0.0,0.0,25,0.00,,---,0.00,VWS V13.01,2013-02-04 05:29:00,
2013-02-04 00:34:00,21.9,-8.5,29.42,WNW,291,0.0,0.0,25,0.00,,---,0.00,VWS V13.01,2013-02-04 05:34:00,
2013-02-04 00:39:00,22.1,-8.3,29.42,WNW,291,0.0,0.0,25,0.00,,---,0.00,VWS V13.01,2013-02-04 05:39:00,
2013-02-04 00:44:00,22.5,-8.0,29.42,WNW,291,0.0,0.0,25,0.00,,---,0.00,VWS V13.01,2013-02-04 05:44:00,
2013-02-04 00:49:00,22.6,-7.9,29.42,WNW,291,0.0,0.0,25,0.00,,---,0.00,VWS V13.01,2013-02-04 05:49:00,
2013-02-04 00:54:00,22.6,-7.9,29.42,WNW,291,0.0,0.0,25,0.00,,---,0.00,VWS V13.01,2013-02-04 05:54:00,
2013-02-04 00:59:00,22.8,-7.7,29.42,WNW,290,0.0,0.0,25,0.00,,---,0.00,VWS V13.01,2013-02-04 05:59:00,
2013-02-04 01:05:00,22.8,-7.7,29.42,WNW,291,0.0,0.0,25,0.00,,---,0.00,VWS V13.01,2013-02-04 06:05:00,
2013-02-04 01:10:00,23.0,-7.6,29.42,WNW,291,0.0,0.0,25,0.00,,---,0.00,VWS V13.01,2013-02-04 06:10:00,
2013-02-04 01:15:00,23.0,-7.6,29.42,WNW,291,0.0,0.0,25,0.00,,---,0.00,VWS V13.01,2013-02-04 06:15:00,
2013-02-04 01:20:00,23.0,-7.6,29.39,WNW,291,0.0,0.0,25,0.00,,---,0.00,VWS V13.01,2013-02-04 06:20:00,
2013-02-04 01:25:00,23.0,-7.6,29.39,WNW,291,0.0,0.0,25,0.00,,---,0.00,VWS V13.01,2013-02-04 06:25:00,
2013-02-04 01:30:00,23.2,-8.2,29.39,WNW,291,0.0,0.0,24,0.00,,---,0.00,VWS V13.01,2013-02-04 06:30:00,
2013-02-04 01:35:00,23.2,-8.2,29.39,WNW,291,0.0,0.0,24,0.00,,---,0.00,VWS V13.01,2013-02-04 06:35:00,
2013-02-04 01:41:00,23.0,-7.6,29.39,WNW,291,0.0,0.0,25,0.00,,---,0.00,VWS V13.01,2013-02-04 06:41:00,
2013-02-04 01:46:00,23.0,-7.6,29.42,WNW,291,0.0,0.0,25,0.00,,---,0.00,VWS V13.01,2013-02-04 06:46:00,
2013-02-04 01:51:00,22.8,-6.1,29.42,WNW,291,0.0,0.0,27,0.00,,---,0.00,VWS V13.01,2013-02-04 06:51:00,
2013-02-04 01:56:00,22.8,-6.1,29.42,WNW,291,0.0,0.0,27,0.00,,---,0.00,VWS V13.01,2013-02-04 06:56:00,
2013-02-04 02:01:00,22.6,-6.3,29.39,WNW,291,0.0,0.0,27,0.00,,---,0.00,VWS V13.01,2013-02-04 07:01:00,
2013-02-04 02:06:00,22.6,-6.3,29.39,WNW,291,0.0,0.0,27,0.00,,---,0.00,VWS V13.01,2013-02-04 07:06:00,
2013-02-04 02:11:00,22.6,-4.1,29.39,WNW,291,0.0,0.0,30,0.00,,---,0.00,VWS V13.01,2013-02-04 07:11:00,
2013-02-04 02:16:00,22.6,-4.1,29.39,WNW,291,0.0,0.0,30,0.00,,---,0.00,VWS V13.01,2013-02-04 07:16:00,
2013-02-04 02:21:00,22.6,-2.8,29.39,WSW,249,0.0,0.0,32,0.00,,---,0.00,VWS V13.01,2013-02-04 07:21:00,
2013-02-04 02:27:00,22.5,-2.9,29.39,WSW,256,0.0,0.0,32,0.00,,---,0.00,VWS V13.01,2013-02-04 07:27:00,
2013-02-04 02:32:00,22.1,-3.2,29.42,WSW,255,0.0,0.0,32,0.00,,---,0.00,VWS V13.01,2013-02-04 07:32:00,
2013-02-04 02:37:00,21.9,-3.4,29.42,West,266,0.0,0.0,32,0.00,,---,0.00,VWS V13.01,2013-02-04 07:37:00,
2013-02-04 02:42:00,21.9,-3.4,29.42,WNW,298,0.0,0.0,32,0.00,,---,0.00,VWS V13.01,2013-02-04 07:42:00,
2013-02-04 02:47:00,21.7,-3.6,29.42,WNW,298,0.0,0.0,32,0.00,,---,0.00,VWS V13.01,2013-02-04 07:47:00,
2013-02-04 02:52:00,21.6,-3.7,29.42,WNW,298,0.0,0.0,32,0.00,,---,0.00,VWS V13.01,2013-02-04 07:52:00,
2013-02-04 02:57:00,21.2,-3.4,29.42,WNW,298,0.0,0.0,33,0.00,,---,0.00,VWS V13.01,2013-02-04 07:57:00,
2013-02-04 03:02:00,21.2,-3.4,29.42,WNW,300,0.0,0.0,33,0.00,,---,0.00,VWS V13.01,2013-02-04 08:02:00,
2013-02-04 03:07:00,21.0,-3.6,29.42,WNW,300,0.0,0.0,33,0.00,,---,0.00,VWS V13.01,2013-02-04 08:07:00,
2013-02-04 03:13:00,20.7,-3.9,29.42,NW,313,0.0,0.0,33,0.00,,---,0.00,VWS V13.01,2013-02-04 08:13:00,
2013-02-04 03:18:00,20.7,-3.3,29.42,WNW,293,0.0,3.6,34,0.00,,---,0.00,VWS V13.01,2013-02-04 08:18:00,
2013-02-04 03:23:00,20.8,-3.1,29.42,WNW,283,0.0,4.0,34,0.00,,---,0.00,VWS V13.01,2013-02-04 08:23:00,
2013-02-04 03:28:00,21.0,-2.9,29.42,North,353,0.0,4.0,34,0.00,,---,0.00,VWS V13.01,2013-02-04 08:28:00,
2013-02-04 03:33:00,21.2,-3.4,29.42,NW,304,0.0,4.0,33,0.00,,---,0.00,VWS V13.01,2013-02-04 08:33:00,
2013-02-04 03:38:00,21.4,-3.2,29.42,NW,321,0.0,4.0,33,0.00,,---,0.00,VWS V13.01,2013-02-04 08:38:00,
2013-02-04 03:43:00,22.1,-4.6,29.42,WNW,298,0.0,4.0,30,0.00,,---,0.00,VWS V13.01,2013-02-04 08:43:00,
2013-02-04 03:48:00,22.1,-4.6,29.42,NNW,328,0.0,7.4,30,0.00,,---,0.00,VWS V13.01,2013-02-04 08:48:00,
2013-02-04 03:53:00,21.9,-6.9,29.42,NNW,327,0.0,7.4,27,0.00,,---,0.00,VWS V13.01,2013-02-04 08:53:00,
2013-02-04 03:59:00,21.9,-6.9,29.42,WNW,295,0.0,7.4,27,0.00,,---,0.00,VWS V13.01,2013-02-04 08:59:00,
2013-02-04 04:04:00,21.9,-6.9,29.42,WNW,285,0.0,4.5,27,0.00,,---,0.00,VWS V13.01,2013-02-04 09:04:00,
2013-02-04 04:09:00,22.3,-6.6,29.42,WNW,292,6.5,10.3,27,0.00,,---,0.00,VWS V13.01,2013-02-04 09:09:00,
2013-02-04 04:16:00,22.8,-6.1,29.42,NW,312,0.0,0.0,27,0.00,,---,0.00,VWS V13.01,2013-02-04 09:16:00,
2013-02-04 04:21:00,22.6,-7.9,29.42,West,272,6.5,8.7,25,0.00,,---,0.00,VWS V13.01,2013-02-04 09:21:00,
2013-02-04 04:26:00,22.6,-7.9,29.42,NW,316,0.0,8.7,25,0.00,,---,0.00,VWS V13.01,2013-02-04 09:26:00,
2013-02-04 04:31:00,22.3,-8.2,29.45,WNW,289,0.0,8.7,25,0.00,,---,0.00,VWS V13.01,2013-02-04 09:31:00,
2013-02-04 04:36:00,22.1,-8.3,29.45,NW,309,0.0,8.7,25,0.00,,---,0.00,VWS V13.01,2013-02-04 09:36:00,
2013-02-04 04:41:00,21.9,-8.5,29.45,North,353,4.0,7.4,25,0.00,,---,0.00,VWS V13.01,2013-02-04 09:41:00,
2013-02-04 04:47:00,21.9,-8.5,29.45,North,6,0.0,7.4,25,0.00,,---,0.00,VWS V13.01,2013-02-04 09:47:00,
2013-02-04 04:52:00,21.9,-8.5,29.45,North,353,0.0,7.4,25,0.00,,---,0.00,VWS V13.01,2013-02-04 09:52:00,
2013-02-04 04:57:00,21.7,-8.6,29.45,NW,309,4.5,7.4,25,0.00,,---,0.00,VWS V13.01,2013-02-04 09:57:00,
2013-02-04 05:02:00,21.7,-8.6,29.45,NNW,330,0.0,6.0,25,0.00,,---,0.00,VWS V13.01,2013-02-04 10:02:00,
2013-02-04 05:07:00,21.6,-8.8,29.45,NW,314,0.0,6.0,25,0.00,,---,0.00,VWS V13.01,2013-02-04 10:07:00,
2013-02-04 05:12:00,21.4,-9.0,29.45,NW,315,0.0,6.0,25,0.00,,---,0.00,VWS V13.01,2013-02-04 10:12:00,
2013-02-04 05:17:00,21.4,-9.0,29.45,West,278,0.0,6.0,25,0.00,,---,0.00,VWS V13.01,2013-02-04 10:17:00,
2013-02-04 05:22:00,21.2,-9.1,29.45,WNW,303,0.0,4.7,25,0.00,,---,0.00,VWS V13.01,2013-02-04 10:22:00,
2013-02-04 05:28:00,21.4,-11.5,29.45,NNW,331,0.0,6.0,22,0.00,,---,0.00,VWS V13.01,2013-02-04 10:28:00,
2013-02-04 05:33:00,21.2,-11.7,29.48,WNW,299,2.7,7.8,22,0.00,,---,0.00,VWS V13.01,2013-02-04 10:33:00,
2013-02-04 05:38:00,21.2,-11.7,29.48,WNW,298,0.0,7.8,22,0.00,,---,0.00,VWS V13.01,2013-02-04 10:38:00,
2013-02-04 05:43:00,21.0,-11.9,29.48,North,357,0.0,6.5,22,0.00,,---,0.00,VWS V13.01,2013-02-04 10:43:00,
2013-02-04 05:48:00,21.4,-11.5,29.48,North,353,0.0,9.4,22,0.00,,---,0.00,VWS V13.01,2013-02-04 10:48:00,
2013-02-04 05:53:00,21.4,-11.5,29.48,WNW,294,3.1,9.4,22,0.00,,---,0.00,VWS V13.01,2013-02-04 10:53:00,
2013-02-04 05:58:00,21.6,-11.4,29.48,NNW,335,4.0,9.4,22,0.00,,---,0.00,VWS V13.01,2013-02-04 10:58:00,
2013-02-04 06:03:00,21.4,-11.5,29.48,NW,321,0.0,4.5,22,0.00,,---,0.00,VWS V13.01,2013-02-04 11:03:00,
2013-02-04 06:09:00,21.2,-11.7,29.48,NNW,339,0.0,8.3,22,0.00,,---,0.00,VWS V13.01,2013-02-04 11:09:00,
2013-02-04 06:14:00,21.0,-11.9,29.48,NW,322,0.0,8.3,22,0.00,,---,0.00,VWS V13.01,2013-02-04 11:14:00,
2013-02-04 06:19:00,20.7,-12.2,29.48,West,269,6.9,8.3,22,0.00,,---,0.00,VWS V13.01,2013-02-04 11:19:00,
2013-02-04 06:24:00,20.8,-12.0,29.48,NW,312,4.0,8.3,22,0.00,,---,0.00,VWS V13.01,2013-02-04 11:24:00,
2013-02-04 06:29:00,20.8,-12.0,29.48,WNW,287,4.7,8.3,22,0.00,,---,0.00,VWS V13.01,2013-02-04 11:29:00,
2013-02-04 06:34:00,20.7,-12.2,29.48,West,273,0.0,8.3,22,0.00,,---,0.00,VWS V13.01,2013-02-04 11:34:00,
2013-02-04 06:39:00,20.5,-12.3,29.48,WNW,299,0.0,8.3,22,0.00,,---,0.00,VWS V13.01,2013-02-04 11:39:00,
2013-02-04 06:45:00,20.5,-12.3,29.48,WNW,299,0.0,4.7,22,0.00,,---,0.00,VWS V13.01,2013-02-04 11:45:00,
2013-02-04 06:50:00,20.3,-12.5,29.48,West,274,2.7,10.3,22,0.00,,---,0.00,VWS V13.01,2013-02-04 11:50:00,
2013-02-04 06:55:00,20.3,-12.5,29.48,WSW,255,5.6,10.3,22,0.00,,---,0.00,VWS V13.01,2013-02-04 11:55:00,
2013-02-04 07:00:00,20.3,-12.5,29.48,West,280,0.0,0.0,22,0.00,,---,0.00,VWS V13.01,2013-02-04 12:00:00,
2013-02-04 07:05:00,20.1,-12.6,29.51,ENE,61,2.7,6.9,22,0.00,,---,0.00,VWS V13.01,2013-02-04 12:05:00,
2013-02-04 07:10:00,20.3,-12.5,29.51,WNW,297,4.0,7.8,22,0.00,,---,0.00,VWS V13.01,2013-02-04 12:10:00,
2013-02-04 07:15:00,20.3,-12.5,29.51,NW,317,5.1,7.8,22,0.00,,---,0.00,VWS V13.01,2013-02-04 12:15:00,
2013-02-04 07:21:00,20.1,-12.6,29.51,North,357,3.6,5.6,22,0.00,,---,0.00,VWS V13.01,2013-02-04 12:21:00,
2013-02-04 07:26:00,20.3,-12.5,29.51,West,270,0.0,7.4,22,0.00,,---,0.00,VWS V13.01,2013-02-04 12:26:00,
2013-02-04 07:31:00,20.3,-12.5,29.51,NW,304,8.9,8.9,22,0.00,,---,0.00,VWS V13.01,2013-02-04 12:31:00,
2013-02-04 07:36:00,20.3,-12.5,29.51,North,0,4.5,8.9,22,0.00,,---,0.00,VWS V13.01,2013-02-04 12:36:00,
2013-02-04 07:41:00,20.5,-14.2,29.51,NW,326,6.0,7.8,20,0.00,,---,0.00,VWS V13.01,2013-02-04 12:41:00,
2013-02-04 07:46:00,20.7,-14.1,29.51,NW,322,6.5,7.8,20,0.00,,---,0.00,VWS V13.01,2013-02-04 12:46:00,
2013-02-04 07:51:00,21.4,-11.5,29.51,West,278,5.6,8.7,22,0.00,,---,0.00,VWS V13.01,2013-02-04 12:51:00,
2013-02-04 07:56:00,21.4,-13.4,29.51,NW,326,2.7,8.7,20,0.00,,---,0.00,VWS V13.01,2013-02-04 12:56:00,
2013-02-04 08:01:00,21.2,-13.6,29.51,WNW,286,0.0,5.6,20,0.00,,---,0.00,VWS V13.01,2013-02-04 13:01:00,
2013-02-04 08:07:00,21.4,-13.4,29.51,WNW,301,4.5,8.3,20,0.00,,---,0.00,VWS V13.01,2013-02-04 13:07:00,
2013-02-04 08:12:00,21.9,-13.0,29.51,WNW,291,6.0,9.8,20,0.00,,---,0.00,VWS V13.01,2013-02-04 13:12:00,
2013-02-04 08:17:00,22.1,-12.8,29.51,West,276,4.0,9.8,20,0.00,,---,0.00,VWS V13.01,2013-02-04 13:17:00,
2013-02-04 08:22:00,22.3,-12.7,29.51,WNW,284,0.0,8.9,20,0.00,,---,0.00,VWS V13.01,2013-02-04 13:22:00,
2013-02-04 08:27:00,22.5,-12.5,29.51,WNW,299,4.7,8.9,20,0.00,,---,0.00,VWS V13.01,2013-02-04 13:27:00,
2013-02-04 08:32:00,22.8,-12.2,29.51,West,259,3.1,8.9,20,0.00,,---,0.00,VWS V13.01,2013-02-04 13:32:00,
2013-02-04 08:37:00,23.2,-12.9,29.51,NW,311,7.4,9.4,19,0.00,,---,0.00,VWS V13.01,2013-02-04 13:37:00,
2013-02-04 08:42:00,24.6,-11.8,29.51,WNW,284,6.9,6.9,19,0.00,,---,0.00,VWS V13.01,2013-02-04 13:42:00,
2013-02-04 08:47:00,24.3,-12.1,29.51,West,261,2.7,8.9,19,0.00,,---,0.00,VWS V13.01,2013-02-04 13:47:00,
2013-02-04 08:53:00,23.7,-12.5,29.51,WNW,287,0.0,8.9,19,0.00,,---,0.00,VWS V13.01,2013-02-04 13:53:00,
2013-02-04 08:58:00,23.5,-12.6,29.51,West,266,0.0,8.9,19,0.00,,---,0.00,VWS V13.01,2013-02-04 13:58:00,
2013-02-04 09:03:00,24.8,-11.6,29.54,NNW,343,4.5,12.5,19,0.00,,---,0.00,VWS V13.01,2013-02-04 14:03:00,
2013-02-04 09:08:00,25.5,-11.0,29.54,NNW,336,6.9,12.5,19,0.00,,---,0.00,VWS V13.01,2013-02-04 14:08:00,
2013-02-04 09:13:00,28.0,-10.0,29.54,West,281,8.9,12.5,18,0.00,,---,0.00,VWS V13.01,2013-02-04 14:13:00,
2013-02-04 09:18:00,28.6,-9.5,29.54,NNW,333,3.1,13.0,18,0.00,,---,0.00,VWS V13.01,2013-02-04 14:18:00,
2013-02-04 09:23:00,27.5,-10.4,29.54,WNW,285,8.7,13.0,18,0.00,,---,0.00,VWS V13.01,2013-02-04 14:23:00,
2013-02-04 09:28:00,27.9,-10.1,29.54,WSW,249,3.6,13.0,18,0.00,,---,0.00,VWS V13.01,2013-02-04 14:28:00,
2013-02-04 09:33:00,28.4,-9.7,29.54,West,270,0.0,13.0,18,0.00,,---,0.00,VWS V13.01,2013-02-04 14:33:00,
2013-02-04 09:39:00,29.1,-9.1,29.54,WNW,302,3.1,13.0,18,0.00,,---,0.00,VWS V13.01,2013-02-04 14:39:00,
2013-02-04 09:44:00,29.7,-8.6,29.54,WSW,254,7.4,15.0,18,0.00,,---,0.00,VWS V13.01,2013-02-04 14:44:00,
2013-02-04 09:49:00,32.4,-6.4,29.54,West,261,9.4,15.0,18,0.00,,---,0.00,VWS V13.01,2013-02-04 14:49:00,
2013-02-04 09:54:00,30.2,-8.2,29.54,NNW,344,6.0,15.0,18,0.00,,---,0.00,VWS V13.01,2013-02-04 14:54:00,
2013-02-04 09:59:00,27.9,-10.1,29.54,WNW,303,6.0,15.0,18,0.00,,---,0.00,VWS V13.01,2013-02-04 14:59:00,
2013-02-04 10:04:00,29.1,-9.1,29.54,WSW,248,6.5,8.7,18,0.00,,---,0.00,VWS V13.01,2013-02-04 15:04:00,
2013-02-04 10:09:00,29.8,-8.5,29.54,WNW,296,4.0,8.7,18,0.00,,---,0.00,VWS V13.01,2013-02-04 15:09:00,
2013-02-04 10:14:00,29.3,-8.9,29.54,NW,312,5.1,8.7,18,0.00,,---,0.00,VWS V13.01,2013-02-04 15:14:00,
2013-02-04 10:20:00,31.1,-7.4,29.54,West,280,6.5,9.8,18,0.00,,---,0.00,VWS V13.01,2013-02-04 15:20:00,
2013-02-04 10:25:00,33.3,-3.5,29.54,NW,318,6.5,8.3,20,0.00,,---,0.00,VWS V13.01,2013-02-04 15:25:00,
2013-02-04 10:30:00,35.8,-2.4,29.54,WNW,302,4.0,8.3,19,0.00,,---,0.00,VWS V13.01,2013-02-04 15:30:00,
2013-02-04 10:35:00,34.9,-2.1,29.54,NW,310,6.5,14.1,20,0.00,,---,0.00,VWS V13.01,2013-02-04 15:35:00,
2013-02-04 10:40:00,34.5,-2.4,29.54,WNW,290,0.0,3.6,20,0.00,,---,0.00,VWS V13.01,2013-02-04 15:40:00,
2013-02-04 10:45:00,34.3,-2.6,29.54,NW,309,0.0,7.4,20,0.00,,---,0.00,VWS V13.01,2013-02-04 15:45:00,
2013-02-04 10:50:00,33.6,-3.2,29.54,WNW,302,0.0,7.4,20,0.00,,---,0.00,VWS V13.01,2013-02-04 15:50:00,
2013-02-04 10:55:00,30.9,-7.6,29.54,NNW,335,9.8,9.8,18,0.00,,---,0.00,VWS V13.01,2013-02-04 15:55:00,
2013-02-04 11:00:00,29.3,-8.9,29.54,NW,304,0.0,4.0,18,0.00,,---,0.00,VWS V13.01,2013-02-04 16:00:00,
2013-02-04 11:06:00,28.9,-9.2,29.54,NW,321,6.9,8.9,18,0.00,,---,0.00,VWS V13.01,2013-02-04 16:06:00,
2013-02-04 11:11:00,30.9,-7.6,29.54,WNW,294,6.0,9.4,18,0.00,,---,0.00,VWS V13.01,2013-02-04 16:11:00,
2013-02-04 11:16:00,33.6,-5.3,29.54,NNW,332,4.7,10.3,18,0.00,,---,0.00,VWS V13.01,2013-02-04 16:16:00,
2013-02-04 11:21:00,32.2,-6.6,29.54,NNW,330,0.0,8.3,18,0.00,,---,0.00,VWS V13.01,2013-02-04 16:21:00,
2013-02-04 11:26:00,32.5,-6.2,29.54,West,279,6.5,11.2,18,0.00,,---,0.00,VWS V13.01,2013-02-04 16:26:00,
2013-02-04 11:31:00,34.5,-5.8,29.51,NNW,331,9.8,11.2,17,0.00,,---,0.00,VWS V13.01,2013-02-04 16:31:00,
2013-02-04 11:36:00,38.1,-0.5,29.51,WNW,286,4.5,11.2,19,0.00,,---,0.00,VWS V13.01,2013-02-04 16:36:00,
2013-02-04 11:41:00,39.4,-0.6,29.51,NW,304,6.9,9.8,18,0.00,,---,0.00,VWS V13.01,2013-02-04 16:41:00,
2013-02-04 11:46:00,40.5,0.3,29.51,WSW,250,7.4,9.8,18,0.00,,---,0.00,VWS V13.01,2013-02-04 16:46:00,
2013-02-04 11:52:00,37.9,-0.6,29.51,WNW,286,2.7,9.8,19,0.00,,---,0.00,VWS V13.01,2013-02-04 16:52:00,
2013-02-04 11:57:00,36.5,-1.8,29.51,West,274,8.7,9.8,19,0.00,,---,0.00,VWS V13.01,2013-02-04 16:57:00,
2013-02-04 12:02:00,32.4,-6.4,29.51,WNW,291,5.1,6.9,18,0.00,,---,0.00,VWS V13.01,2013-02-04 17:02:00,
2013-02-04 12:07:00,29.5,-8.8,29.51,WNW,289,4.0,9.4,18,0.00,,---,0.00,VWS V13.01,2013-02-04 17:07:00,
2013-02-04 12:12:00,32.0,-6.7,29.51,SW,236,6.5,11.2,18,0.00,,---,0.00,VWS V13.01,2013-02-04 17:12:00,
2013-02-04 12:17:00,32.7,-6.1,29.51,West,264,8.9,11.2,18,0.00,,---,0.00,VWS V13.01,2013-02-04 17:17:00,
2013-02-04 12:22:00,31.3,-7.3,29.51,West,264,6.9,8.3,18,0.00,,---,0.00,VWS V13.01,2013-02-04 17:22:00,
2013-02-04 12:27:00,30.7,-7.7,29.51,WNW,295,6.0,10.7,18,0.00,,---,0.00,VWS V13.01,2013-02-04 17:27:00,
2013-02-04 12:33:00,30.6,-7.9,29.51,West,274,4.5,10.7,18,0.00,,---,0.00,VWS V13.01,2013-02-04 17:33:00,
2013-02-04 12:38:00,30.9,-7.6,29.51,WNW,285,6.9,10.7,18,0.00,,---,0.00,VWS V13.01,2013-02-04 17:38:00,
2013-02-04 12:43:00,33.4,-5.5,29.51,West,265,4.0,7.4,18,0.00,,---,0.00,VWS V13.01,2013-02-04 17:43:00,
2013-02-04 12:48:00,34.2,-2.7,29.51,North,10,4.0,7.4,20,0.00,,---,0.00,VWS V13.01,2013-02-04 17:48:00,
2013-02-04 12:53:00,30.9,-7.6,29.51,WNW,291,6.0,10.7,18,0.00,,---,0.00,VWS V13.01,2013-02-04 17:53:00,
2013-02-04 12:58:00,32.9,-5.9,29.51,North,357,8.3,10.7,18,0.00,,---,0.00,VWS V13.01,2013-02-04 17:58:00,
2013-02-04 13:03:00,34.5,-5.8,29.51,WNW,291,8.9,9.4,17,0.00,,---,0.00,VWS V13.01,2013-02-04 18:03:00,
2013-02-04 13:08:00,34.0,-2.9,29.51,WNW,293,5.6,11.2,20,0.00,,---,0.00,VWS V13.01,2013-02-04 18:08:00,
2013-02-04 13:13:00,31.3,-7.3,29.51,WSW,254,5.1,12.1,18,0.00,,---,0.00,VWS V13.01,2013-02-04 18:13:00,
2013-02-04 13:19:00,33.1,-5.8,29.51,NW,305,5.6,12.1,18,0.00,,---,0.00,VWS V13.01,2013-02-04 18:19:00,
2013-02-04 13:24:00,36.3,-2.0,29.51,North,353,4.0,8.9,19,0.00,,---,0.00,VWS V13.01,2013-02-04 18:24:00,
2013-02-04 13:29:00,37.4,-1.1,29.51,West,270,8.3,13.0,19,0.00,,---,0.00,VWS V13.01,2013-02-04 18:29:00,
2013-02-04 13:34:00,33.6,-3.2,29.51,NW,308,6.5,13.0,20,0.00,,---,0.00,VWS V13.01,2013-02-04 18:34:00,
2013-02-04 13:39:00,31.5,-7.2,29.51,West,273,12.5,13.0,18,0.00,,---,0.00,VWS V13.01,2013-02-04 18:39:00,
2013-02-04 13:44:00,30.2,-8.2,29.51,NW,319,0.0,8.3,18,0.00,,---,0.00,VWS V13.01,2013-02-04 18:44:00,
2013-02-04 13:49:00,30.2,-8.2,29.51,WNW,302,8.9,10.3,18,0.00,,---,0.00,VWS V13.01,2013-02-04 18:49:00,
2013-02-04 13:54:00,30.9,-7.6,29.51,WNW,300,4.5,10.3,18,0.00,,---,0.00,VWS V13.01,2013-02-04 18:54:00,
2013-02-04 14:00:00,30.6,-7.9,29.51,West,278,10.3,11.2,18,0.00,,---,0.00,VWS V13.01,2013-02-04 19:00:00,
2013-02-04 14:05:00,30.2,-8.2,29.51,SW,235,6.9,12.1,18,0.00,,---,0.00,VWS V13.01,2013-02-04 19:05:00,
2013-02-04 14:10:00,30.6,-7.9,29.51,NNW,332,6.9,12.1,18,0.00,,---,0.00,VWS V13.01,2013-02-04 19:10:00,
2013-02-04 14:15:00,30.9,-7.6,29.51,NW,306,6.0,12.1,18,0.00,,---,0.00,VWS V13.01,2013-02-04 19:15:00,
2013-02-04 14:20:00,30.9,-7.6,29.51,West,267,7.4,7.4,18,0.00,,---,0.00,VWS V13.01,2013-02-04 19:20:00,
2013-02-04 14:25:00,31.1,-7.4,29.51,SW,217,6.9,10.7,18,0.00,,---,0.00,VWS V13.01,2013-02-04 19:25:00,
2013-02-04 14:30:00,30.7,-7.7,29.51,WNW,283,6.9,13.0,18,0.00,,---,0.00,VWS V13.01,2013-02-04 19:30:00,
2013-02-04 14:35:00,30.6,-7.9,29.51,NW,311,9.8,13.0,18,0.00,,---,0.00,VWS V13.01,2013-02-04 19:35:00,
2013-02-04 14:40:00,30.0,-8.3,29.51,WNW,284,2.7,7.4,18,0.00,,---,0.00,VWS V13.01,2013-02-04 19:40:00,
2013-02-04 14:46:00,29.7,-8.6,29.48,WSW,244,8.3,12.5,18,0.00,,---,0.00,VWS V13.01,2013-02-04 19:46:00,
2013-02-04 14:51:00,29.1,-9.1,29.48,West,273,5.6,13.0,18,0.00,,---,0.00,VWS V13.01,2013-02-04 19:51:00,
2013-02-04 14:56:00,29.1,-9.1,29.48,WNW,283,3.6,13.0,18,0.00,,---,0.00,VWS V13.01,2013-02-04 19:56:00,
2013-02-04 15:01:00,29.3,-8.9,29.51,WNW,297,6.0,11.6,18,0.00,,---,0.00,VWS V13.01,2013-02-04 20:01:00,
2013-02-04 15:06:00,29.3,-8.9,29.51,West,267,5.1,11.6,18,0.00,,---,0.00,VWS V13.01,2013-02-04 20:06:00,
2013-02-04 15:12:00,29.1,-9.1,29.51,NNW,338,6.0,11.6,18,0.00,,---,0.00,VWS V13.01,2013-02-04 20:12:00,
2013-02-04 15:17:00,29.1,-9.1,29.48,WNW,296,4.7,11.6,18,0.00,,---,0.00,VWS V13.01,2013-02-04 20:17:00,
2013-02-04 15:22:00,28.9,-9.2,29.48,WNW,293,9.8,9.8,18,0.00,,---,0.00,VWS V13.01,2013-02-04 20:22:00,
2013-02-04 15:27:00,28.9,-9.2,29.48,WSW,253,6.5,9.8,18,0.00,,---,0.00,VWS V13.01,2013-02-04 20:27:00,
2013-02-04 15:32:00,29.1,-9.1,29.48,WNW,288,3.1,9.8,18,0.00,,---,0.00,VWS V13.01,2013-02-04 20:32:00,
2013-02-04 15:37:00,29.1,-9.1,29.48,West,262,5.6,15.9,18,0.00,,---,0.00,VWS V13.01,2013-02-04 20:37:00,
2013-02-04 15:42:00,28.9,-9.2,29.48,West,267,9.4,10.3,18,0.00,,---,0.00,VWS V13.01,2013-02-04 20:42:00,
2013-02-04 15:48:00,28.6,-9.5,29.51,NW,313,3.6,10.3,18,0.00,,---,0.00,VWS V13.01,2013-02-04 20:48:00,
2013-02-04 15:53:00,28.6,-9.5,29.51,WNW,302,4.0,10.3,18,0.00,,---,0.00,VWS V13.01,2013-02-04 20:53:00,
2013-02-04 15:58:00,28.4,-9.7,29.51,NW,306,7.8,12.1,18,0.00,,---,0.00,VWS V13.01,2013-02-04 20:58:00,
2013-02-04 16:03:00,28.2,-9.8,29.51,WNW,293,7.8,8.7,18,0.00,,---,0.00,VWS V13.01,2013-02-04 21:03:00,
2013-02-04 16:08:00,28.2,-9.8,29.51,North,353,6.5,8.7,18,0.00,,---,0.00,VWS V13.01,2013-02-04 21:08:00,
2013-02-04 16:13:00,28.0,-10.0,29.51,West,271,4.5,8.7,18,0.00,,---,0.00,VWS V13.01,2013-02-04 21:13:00,
2013-02-04 16:18:00,27.9,-10.1,29.51,WNW,296,8.3,8.9,18,0.00,,---,0.00,VWS V13.01,2013-02-04 21:18:00,
2013-02-04 16:23:00,27.9,-10.1,29.51,WNW,287,4.7,7.8,18,0.00,,---,0.00,VWS V13.01,2013-02-04 21:23:00,
2013-02-04 16:28:00,27.5,-10.4,29.51,West,276,7.8,8.9,18,0.00,,---,0.00,VWS V13.01,2013-02-04 21:28:00,
2013-02-04 16:33:00,27.5,-10.4,29.51,NW,324,2.7,9.4,18,0.00,,---,0.00,VWS V13.01,2013-02-04 21:33:00,
2013-02-04 16:38:00,27.1,-10.7,29.51,West,273,5.1,9.4,18,0.00,,---,0.00,VWS V13.01,2013-02-04 21:38:00,
2013-02-04 16:43:00,27.1,-10.7,29.51,WNW,288,5.6,9.8,18,0.00,,---,0.00,VWS V13.01,2013-02-04 21:43:00,
2013-02-04 16:48:00,27.0,-10.9,29.51,WNW,282,5.6,9.8,18,0.00,,---,0.00,VWS V13.01,2013-02-04 21:48:00,
2013-02-04 16:53:00,26.8,-11.0,29.51,West,272,4.0,9.8,18,0.00,,---,0.00,VWS V13.01,2013-02-04 21:53:00,
2013-02-04 16:59:00,26.6,-10.1,29.51,SW,224,3.6,9.8,19,0.00,,---,0.00,VWS V13.01,2013-02-04 21:59:00,
2013-02-04 17:04:00,26.6,-10.1,29.51,WNW,294,4.7,10.7,19,0.00,,---,0.00,VWS V13.01,2013-02-04 22:04:00,
2013-02-04 17:30:00,25.7,-10.9,29.54,North,357,6.5,6.5,19,0.00,,---,0.00,VWS V13.01,2013-02-04 22:30:00,
2013-02-04 17:35:00,25.5,-11.0,29.54,West,267,4.7,8.7,19,0.00,,---,0.00,VWS V13.01,2013-02-04 22:35:00,
2013-02-04 17:40:00,25.5,-11.0,29.54,WNW,284,0.0,4.7,19,0.00,,---,0.00,VWS V13.01,2013-02-04 22:40:00,
2013-02-04 17:46:00,25.5,-11.0,29.54,WNW,289,5.6,6.5,19,0.00,,---,0.00,VWS V13.01,2013-02-04 22:46:00,
2013-02-04 17:51:00,25.5,-11.0,29.54,WNW,291,3.6,6.9,19,0.00,,---,0.00,VWS V13.01,2013-02-04 22:51:00,
2013-02-04 17:56:00,25.3,-11.1,29.54,West,261,4.0,6.9,19,0.00,,---,0.00,VWS V13.01,2013-02-04 22:56:00,
2013-02-04 18:01:00,25.2,-11.3,29.54,West,265,3.1,4.7,19,0.00,,---,0.00,VWS V13.01,2013-02-04 23:01:00,
2013-02-04 18:06:00,25.0,-11.4,29.54,WNW,283,4.7,6.5,19,0.00,,---,0.00,VWS V13.01,2013-02-04 23:06:00,
2013-02-04 18:11:00,25.2,-11.3,29.54,West,279,3.6,8.9,19,0.00,,---,0.00,VWS V13.01,2013-02-04 23:11:00,
2013-02-04 18:16:00,25.3,-11.1,29.54,NNW,333,4.7,10.7,19,0.00,,---,0.00,VWS V13.01,2013-02-04 23:16:00,
2013-02-04 18:21:00,25.3,-11.1,29.54,WNW,302,0.0,5.1,19,0.00,,---,0.00,VWS V13.01,2013-02-04 23:21:00,
2013-02-04 18:27:00,25.3,-11.1,29.54,WSW,256,5.6,6.0,19,0.00,,---,0.00,VWS V13.01,2013-02-04 23:27:00,
2013-02-04 18:32:00,25.2,-11.3,29.57,West,269,7.8,8.9,19,0.00,,---,0.00,VWS V13.01,2013-02-04 23:32:00,
2013-02-04 18:37:00,25.3,-11.1,29.57,West,267,0.0,8.9,19,0.00,,---,0.00,VWS V13.01,2013-02-04 23:37:00,
2013-02-04 18:42:00,25.3,-11.1,29.57,West,281,4.0,5.1,19,0.00,,---,0.00,VWS V13.01,2013-02-04 23:42:00,
2013-02-04 18:47:00,25.3,-11.1,29.57,West,275,4.5,8.7,19,0.00,,---,0.00,VWS V13.01,2013-02-04 23:47:00,
2013-02-04 18:52:00,25.2,-11.3,29.57,WNW,293,0.0,8.7,19,0.00,,---,0.00,VWS V13.01,2013-02-04 23:52:00,
2013-02-04 18:57:00,25.2,-11.3,29.57,WNW,295,3.6,8.7,19,0.00,,---,0.00,VWS V13.01,2013-02-04 23:57:00,
2013-02-04 19:02:00,25.2,-11.3,29.57,West,280,3.1,4.7,19,0.00,,---,0.00,VWS V13.01,2013-02-05 00:02:00,
2013-02-04 19:08:00,25.0,-11.4,29.57,NW,313,0.0,5.6,19,0.00,,---,0.00,VWS V13.01,2013-02-05 00:08:00,
2013-02-04 19:13:00,24.8,-11.6,29.57,WNW,289,0.0,5.6,19,0.00,,---,0.00,VWS V13.01,2013-02-05 00:13:00,
2013-02-04 19:18:00,24.8,-11.6,29.57,WNW,298,4.0,5.6,19,0.00,,---,0.00,VWS V13.01,2013-02-05 00:18:00,
2013-02-04 19:23:00,24.6,-11.8,29.57,WNW,295,0.0,4.5,19,0.00,,---,0.00,VWS V13.01,2013-02-05 00:23:00,
2013-02-04 19:28:00,24.6,-11.8,29.57,NNW,344,0.0,6.5,19,0.00,,---,0.00,VWS V13.01,2013-02-05 00:28:00,
2013-02-04 19:33:00,24.4,-11.9,29.57,WNW,289,0.0,6.5,19,0.00,,---,0.00,VWS V13.01,2013-02-05 00:33:00,
2013-02-04 19:38:00,24.4,-11.9,29.57,WNW,296,3.6,6.5,19,0.00,,---,0.00,VWS V13.01,2013-02-05 00:38:00,
2013-02-04 19:43:00,24.3,-12.1,29.57,WNW,286,0.0,4.5,19,0.00,,---,0.00,VWS V13.01,2013-02-05 00:43:00,
2013-02-04 19:49:00,24.1,-12.2,29.57,WNW,285,0.0,4.5,19,0.00,,---,0.00,VWS V13.01,2013-02-05 00:49:00,
2013-02-04 19:54:00,23.9,-12.4,29.57,WNW,285,0.0,4.5,19,0.00,,---,0.00,VWS V13.01,2013-02-05 00:54:00,
2013-02-04 19:59:00,23.7,-12.5,29.57,WNW,285,0.0,4.5,19,0.00,,---,0.00,VWS V13.01,2013-02-05 00:59:00,
2013-02-04 20:04:00,23.7,-12.5,29.57,WNW,285,0.0,0.0,19,0.00,,---,0.00,VWS V13.01,2013-02-05 01:04:00,
2013-02-04 20:09:00,23.7,-12.5,29.57,WNW,285,0.0,0.0,19,0.00,,---,0.00,VWS V13.01,2013-02-05 01:09:00,
2013-02-04 20:14:00,23.9,-12.4,29.57,WNW,285,0.0,0.0,19,0.00,,---,0.00,VWS V13.01,2013-02-05 01:14:00,
2013-02-04 20:19:00,23.9,-12.4,29.57,WNW,285,0.0,3.1,19,0.00,,---,0.00,VWS V13.01,2013-02-05 01:19:00,
2013-02-04 20:24:00,23.9,-12.4,29.57,WNW,285,0.0,0.0,19,0.00,,---,0.00,VWS V13.01,2013-02-05 01:24:00,
2013-02-04 20:29:00,23.9,-12.4,29.57,WNW,285,0.0,0.0,19,0.00,,---,0.00,VWS V13.01,2013-02-05 01:29:00,
2013-02-04 20:35:00,23.9,-12.4,29.57,WNW,285,0.0,0.0,19,0.00,,---,0.00,VWS V13.01,2013-02-05 01:35:00,
2013-02-04 20:40:00,23.5,-12.6,29.57,WNW,285,0.0,0.0,19,0.00,,---,0.00,VWS V13.01,2013-02-05 01:40:00,
2013-02-04 20:45:00,23.4,-12.8,29.57,WNW,285,0.0,0.0,19,0.00,,---,0.00,VWS V13.01,2013-02-05 01:45:00,
2013-02-04 20:50:00,23.0,-12.1,29.57,WNW,285,0.0,0.0,20,0.00,,---,0.00,VWS V13.01,2013-02-05 01:50:00,
2013-02-04 20:55:00,22.6,-12.4,29.57,WNW,285,0.0,0.0,20,0.00,,---,0.00,VWS V13.01,2013-02-05 01:55:00,
2013-02-04 21:00:00,22.3,-12.7,29.57,WNW,285,0.0,0.0,20,0.00,,---,0.00,VWS V13.01,2013-02-05 02:00:00,
2013-02-04 21:05:00,22.1,-12.8,29.57,WNW,285,0.0,0.0,20,0.00,,---,0.00,VWS V13.01,2013-02-05 02:05:00,
2013-02-04 21:11:00,21.9,-13.0,29.57,WNW,285,0.0,0.0,20,0.00,,---,0.00,VWS V13.01,2013-02-05 02:11:00,
2013-02-04 21:16:00,21.9,-13.0,29.57,WNW,285,0.0,0.0,20,0.00,,---,0.00,VWS V13.01,2013-02-05 02:16:00,
2013-02-04 21:21:00,21.6,-13.3,29.57,WNW,285,0.0,0.0,20,0.00,,---,0.00,VWS V13.01,2013-02-05 02:21:00,
2013-02-04 21:26:00,21.4,-13.4,29.57,WNW,285,0.0,0.0,20,0.00,,---,0.00,VWS V13.01,2013-02-05 02:26:00,
2013-02-04 21:31:00,21.4,-13.4,29.57,WNW,285,0.0,0.0,20,0.00,,---,0.00,VWS V13.01,2013-02-05 02:31:00,
2013-02-04 21:36:00,21.2,-13.6,29.57,WNW,285,0.0,0.0,20,0.00,,---,0.00,VWS V13.01,2013-02-05 02:36:00,
2013-02-04 21:42:00,21.2,-13.6,29.57,WNW,285,0.0,0.0,20,0.00,,---,0.00,VWS V13.01,2013-02-05 02:42:00,
2013-02-04 21:47:00,21.2,-13.6,29.57,WNW,285,0.0,0.0,20,0.00,,---,0.00,VWS V13.01,2013-02-05 02:47:00,
2013-02-04 21:52:00,21.0,-13.8,29.57,WNW,285,0.0,0.0,20,0.00,,---,0.00,VWS V13.01,2013-02-05 02:52:00,
2013-02-04 21:57:00,21.0,-13.8,29.57,WNW,285,0.0,0.0,20,0.00,,---,0.00,VWS V13.01,2013-02-05 02:57:00,
2013-02-04 22:02:00,21.0,-13.8,29.57,WNW,285,0.0,0.0,20,0.00,,---,0.00,VWS V13.01,2013-02-05 03:02:00,
2013-02-04 22:07:00,21.0,-13.8,29.57,WNW,285,0.0,0.0,20,0.00,,---,0.00,VWS V13.01,2013-02-05 03:07:00,
2013-02-04 22:12:00,21.0,-13.8,29.57,WNW,285,0.0,0.0,20,0.00,,---,0.00,VWS V13.01,2013-02-05 03:12:00,
2013-02-04 22:18:00,21.0,-13.8,29.57,WNW,285,0.0,0.0,20,0.00,,---,0.00,VWS V13.01,2013-02-05 03:18:00,
2013-02-04 22:23:00,20.8,-13.9,29.57,WNW,285,0.0,0.0,20,0.00,,---,0.00,VWS V13.01,2013-02-05 03:23:00,
2013-02-04 22:28:00,20.7,-14.1,29.57,WNW,285,0.0,0.0,20,0.00,,---,0.00,VWS V13.01,2013-02-05 03:28:00,
2013-02-04 22:33:00,20.3,-14.4,29.57,WNW,285,0.0,0.0,20,0.00,,---,0.00,VWS V13.01,2013-02-05 03:33:00,
2013-02-04 22:38:00,20.3,-14.4,29.57,WNW,285,0.0,0.0,20,0.00,,---,0.00,VWS V13.01,2013-02-05 03:38:00,
2013-02-04 22:43:00,20.1,-14.5,29.57,WNW,285,0.0,0.0,20,0.00,,---,0.00,VWS V13.01,2013-02-05 03:43:00,
2013-02-04 22:48:00,19.9,-14.7,29.57,WNW,285,0.0,0.0,20,0.00,,---,0.00,VWS V13.01,2013-02-05 03:48:00,
2013-02-04 22:53:00,19.8,-14.8,29.57,WNW,285,0.0,0.0,20,0.00,,---,0.00,VWS V13.01,2013-02-05 03:53:00,
2013-02-04 22:59:00,19.8,-14.8,29.57,WNW,285,0.0,0.0,20,0.00,,---,0.00,VWS V13.01,2013-02-05 03:59:00,
2013-02-04 23:04:00,19.6,-15.0,29.57,WNW,285,0.0,0.0,20,0.00,,---,0.00,VWS V13.01,2013-02-05 04:04:00,
2013-02-04 23:09:00,19.4,-15.1,29.57,WNW,285,0.0,0.0,20,0.00,,---,0.00,VWS V13.01,2013-02-05 04:09:00,
2013-02-04 23:14:00,19.2,-15.3,29.57,WNW,285,0.0,0.0,20,0.00,,---,0.00,VWS V13.01,2013-02-05 04:14:00,
2013-02-04 23:19:00,19.0,-15.4,29.59,WNW,285,0.0,0.0,20,0.00,,---,0.00,VWS V13.01,2013-02-05 04:19:00,
2013-02-04 23:24:00,18.9,-15.6,29.59,WNW,285,0.0,0.0,20,0.00,,---,0.00,VWS V13.01,2013-02-05 04:24:00,
2013-02-04 23:29:00,18.9,-15.6,29.59,WNW,285,0.0,0.0,20,0.00,,---,0.00,VWS V13.01,2013-02-05 04:29:00,
2013-02-04 23:35:00,18.9,-15.6,29.59,WNW,285,0.0,0.0,20,0.00,,---,0.00,VWS V13.01,2013-02-05 04:35:00,
2013-02-04 23:40:00,19.0,-15.4,29.59,WNW,285,0.0,0.0,20,0.00,,---,0.00,VWS V13.01,2013-02-05 04:40:00,
2013-02-04 23:45:00,19.2,-15.3,29.59,WNW,285,0.0,0.0,20,0.00,,---,0.00,VWS V13.01,2013-02-05 04:45:00,
2013-02-04 23:50:00,19.4,-15.1,29.59,WNW,285,0.0,0.0,20,0.00,,---,0.00,VWS V13.01,2013-02-05 04:50:00,
2013-02-04 23:55:00,19.6,-15.0,29.59,WNW,286,0.0,0.0,20,0.00,,---,0.00,VWS V13.01,2013-02-05 04:55:00,